Back to catalog

STARLINK-37480

AliveCommunicationsVLEO
NORAD 100287·PAYLOAD·🇺🇸 United States

Launched Aug 11, 2026 from Cape Canaveral Space Force Station

Loading…

Next Passes (next 24 hours)

TLE

StaleSource: Space-Track

Epoch: Sep 7, 2026, 17:23 UTC

1 A0287U 26183R   26250.72440252 -.01129862  00000-0 -76060-2 0  9990
2 A0287  53.1605 319.8769 0000907 157.2116 202.8945 15.77066661  4303

Track STARLINK-37480 in real time with AllMySat

Download on the App Store